Home > Weather > Bremerhaven > Past weeks

Flag for Germany Weather for the Past 2 Weeks in Bremerhaven, Bremen, Germany

Now
43 °F

Light rain. Broken clouds.


Feels Like: 38 °F
Forecast: 42 / 51 °F
Wind: 8 mph from Southwest

Location: Nordholz

Current Time: Apr 29, 2016 at 9:49:44 PM

Latest Report: Apr 29, 2016 at 8:20 PM


Visibility: N/A

Pressure: 29.95 "Hg

Humidity: 81%

Dew Point: 37 °F

Location of BremerhavenLocation

Historic Weather in Bremerhaven — Graph

°F

Bremerhaven Temperature Yesterday

Maximum temperature yesterday: 46 °F (at 2:20 PM)
Minimum temperature yesterday: 37 °F (at 2:20 AM)
Average temperature yesterday: 41 °F

High & Low Weather Summary for the Past Weeks

 TemperatureHumidityPressure
High55 °F (Apr 16, 2:20 PM)100% (Apr 15, 8:20 PM)30.45 "Hg (Apr 15, 8:20 PM)
Low32 °F (Apr 25, 11:20 PM)50% (Apr 21, 3:20 PM)29.36 "Hg (Apr 26, 6:20 AM)
Average43 °F81%29.85 "Hg
* Reported Apr 14 8:20 PM — Apr 29 8:20 PM, Bremerhaven, Weather by CustomWeather, © 2016

Note: Actual official high and low records may vary slightly from our data, if they occured in-between our weather recording intervals... More about our weather records

Advertising

Bremerhaven Weather History for the Previous 24 Hours

Scroll right to see more
 ConditionsComfort  
Time TempWeatherWind HumidityBarometerVisibility
8:20 PM
Fri, Apr 29
43 °FLight rain. Broken clouds.8 mph81%29.95 "HgN/A
7:20 PM46 °FMostly cloudy.9 mph71%29.95 "HgN/A
6:20 PM46 °FOvercast.14 mph71%29.95 "HgN/A
5:20 PM46 °FScattered showers. Partly sunny.13 mph82%29.92 "HgN/A
4:20 PM46 °FMore clouds than sun.12 mph87%29.92 "HgN/A
3:20 PM45 °FLight rain. More clouds than sun.13 mph93%29.92 "HgN/A
2:20 PM45 °FLight rain. Cloudy.9 mph93%29.89 "HgN/A
1:20 PM43 °FDrizzle. Cloudy.9 mph93%29.89 "Hg6 mi
12:45 PM43 °FDrizzle. Fog.14 mph93%29.89 "Hg3 mi
12:20 PM46 °FDrizzle. Overcast.18 mph71%29.86 "Hg3 mi
11:20 AM50 °FBroken clouds.17 mph62%29.83 "HgN/A
10:20 AM46 °FPartly sunny.15 mph71%29.83 "HgN/A
9:20 AM45 °FPartly sunny.15 mph76%29.86 "HgN/A
8:20 AM41 °FBroken clouds.14 mph81%29.86 "HgN/A
7:20 AM37 °FPartly sunny.12 mph93%29.86 "Hg4 mi
7:03 AM37 °FPartly sunny.9 mph93%29.86 "Hg4 mi
6:20 AM36 °FFog.10 mph93%29.86 "Hg2 mi
5:20 AM36 °FFog.9 mph93%29.89 "Hg3 mi
4:20 AM36 °FPassing clouds.9 mph93%29.89 "Hg4 mi
3:20 AM36 °FPassing clouds.7 mph93%29.92 "Hg5 mi
2:20 AM37 °FPassing clouds.7 mph93%29.92 "Hg6 mi
1:20 AM39 °FPassing clouds.7 mph87%29.92 "HgN/A
12:20 AM39 °FPassing clouds.6 mph87%29.92 "HgN/A
11:20 PM
Thu, Apr 28
39 °FPartly cloudy.8 mph87%29.92 "HgN/A
10:20 PM39 °FPassing clouds.6 mph87%29.92 "HgN/A
9:20 PM41 °FBroken clouds.5 mph81%29.95 "HgN/A
Weather by CustomWeather, © 2016

See weather overviewHow to use our weather pages